GLOBALSTAR M029 [-]

Last updated on Fri Dec 29 2023 00:02:56 GMT+0000 (Coordinated Universal Time)

1 25963U 99062C 23361.72993976 -.00000075 00000+0 13955-3 0 9996 2 25963 51.9800 109.6319 0003495 136.6618 11.4543 11.99872249104602

Satellite not in orbit

GLOBALSTAR M029 [-]